Regional Weather Roundup
Issued by NWS

Home | Current Version | Previous Version | Text Only | Print | Product List | Glossary Off
Versions: 1 2 3 4 5 6 7 8 9 10 11 12 13 14 15 16 17 18 19 20 21 22 23 24 25 26 27 28 29 30 31 32 33 34 35 36 37 38 39 40 41 42 43 44 45 46 47 48 49 50

000
ASUS43 KIND 092309
RWRIN

WEATHER ROUNDUP FOR INDIANA
NATIONAL WEATHER SERVICE INDIANAPOLIS IN
700 PM EDT WED JUL 09 2014

NOTE: "FAIR" INDICATES FEW OR NO CLOUDS BELOW 12,000 FEET WITH NO
SIGNIFICANT WEATHER AND/OR OBSTRUCTIONS TO VISIBILITY.

* - STATION DOES NOT REPORT WEATHER SUCH AS PRECIPITATION OR FOG.

+ - STATION NOT QUALITY CONTROLLED BY THE NATIONAL WEATHER SERVICE.
    USE DATA WITH CAUTION...ESPECIALLY DEWPOINT AND RELATIVE
    HUMIDITY OBSERVATIONS.

INZ001>003-010>013-019-020-100000-
NORTHWEST INDIANA

CITY           SKY/WX    TMP DP  RH WIND       PRES   REMARKS
GARY /AIRPORT/ MOSUNNY   75  57  53 NE10      29.98R
KNOX *+        PTSUNNY   73  58  58 N7        29.97R
LA PORTE +     SUNNY     74  55  52 NW8       29.99R
MICHIGAN CITY+ SUNNY     72  52  49 NE6       29.99S
MONTICELLO +   SUNNY     77  57  50 W6        29.96S
RENSSELAER +   MOSUNNY   75  57  53 NW5       29.97S
VALPARAISO     MOSUNNY   76  57  51 N7        29.98R

$$

LMZ046-743>745-100000-
SOUTHERN LAKE MICHIGAN

STATION/POSITION TIME  TEMP WIND        PRES
                       AIR  DIR/SP/G
                 (UTC) (F)  (DEG/KT/KT) (MB)
MICHIGAN CITY    2300   69   20/  7/  8   N/A

$$

INZ004-005-014>016-021>024-100000-
NORTH CENTRAL INDIANA

CITY           SKY/WX    TMP DP  RH WIND       PRES   REMARKS
GOSHEN         MOSUNNY   75  55  49 NW12      29.97S
LOGANSPORT +   CLOUDY    75  54  46 N7        29.97R
PERU/GRISSOM   PTSUNNY   77  62  59 N6        29.96S
ROCHESTER +    MOSUNNY   79  54  41 N9        29.98R
SOUTH BEND     SUNNY     74  54  49 NW12      29.99R
WARSAW +       SUNNY     73  55  53 N8        29.97S

$$

INZ006>009-017-018-025>027-100000-
NORTHEAST INDIANA

CITY           SKY/WX    TMP DP  RH WIND       PRES   REMARKS
ANGOLA *+      MOSUNNY   73  66  78 NW9       29.98R
AUBURN +       SUNNY     77  52  41 NW10      29.98R
FORT WAYNE     MOSUNNY   78  55  44 NW8       29.96S
HUNTINGTON +   MOSUNNY   75  56  50 N9        29.96R

$$

INZ028-029-035-036-043>045-051>053-100000-
WEST CENTRAL INDIANA

CITY           SKY/WX    TMP DP  RH WIND       PRES   REMARKS
GREENCASTLE +  MOSUNNY   77  59  53 NW7       29.98S
LAFAYETTE      PTSUNNY   75  56  51 NW8       29.97S
TERRE HAUTE    MOSUNNY   79  60  52 N8        29.97S

$$

INZ030>032-037>040-046>048-054>057-064-065-100000-
CENTRAL INDIANA

CITY           SKY/WX    TMP DP  RH WIND       PRES   REMARKS
CP ATTERBURY + SUNNY     79  59  50 W7        29.97R
COLUMBUS       MOSUNNY   81  59  47 W7        29.96F
FRANKFORT +    MOSUNNY   77  59  53 W10       30.00
GREENWOOD *+   MOSUNNY   81  61  50 NW12G25   29.97
INDIANAPOLIS   MOSUNNY   79  57  46 NW15      29.96S
-EAGLE CREEK   MOSUNNY   78  54  43 NW13      29.96S
KOKOMO *+      SUNNY     79  57  47 W10       29.96S
MARION +       SUNNY     76  55  46 W10       29.97S
MT COMFORT *+  SUNNY     79  57  47 NW10G17   29.97S
SHELBYVILLE    MOSUNNY   81  59  47 NW13      29.95F
ZIONSVILLE +   SUNNY     77  52  41 NW10G16   29.98S

$$

INZ033-034-041-042-049-050-058-059-100000-
EAST CENTRAL INDIANA

CITY           SKY/WX    TMP DP  RH WIND       PRES   REMARKS
MUNCIE         SUNNY     78  54  43 W9        29.96S

$$

INZ060-061-067>069-081>083-085>088-100000-
SOUTHWEST INDIANA

CITY           SKY/WX    TMP DP  RH WIND       PRES   REMARKS
EVANSVILLE     SUNNY     85  58  39 NW8       29.96F
HUNTINGBURG *+ SUNNY     84  61  45 NW9       29.97S
WASHINGTON +   PTSUNNY   81  64  57 N6        29.95F

$$

INZ062-063-066-070>080-084-089>092-100000-
SOUTH CENTRAL AND SOUTHEAST INDIANA

CITY           SKY/WX    TMP DP  RH WIND       PRES   REMARKS
BLOOMINGTON    SUNNY     79  60  52 NW7       29.97F
NORTH VERNON + CLOUDY    77  61  57 NW6       29.97

$$




USA.gov is the U.S. government's official web portal to all federal, state and local government web resources and services.